Regional Weather Roundup
Issued by NWS Binghamton, NY

Home | Current Version | Previous Version | Text Only | Print | Product List | Glossary On
Versions: 1 2 3 4 5 6 7 8 9 10 11 12 13 14 15 16 17 18 19 20 21 22 23 24 25 26 27 28
000
ASUS41 KBGM 282210
RWRBGM

REGIONAL WEATHER ROUNDUP
NATIONAL WEATHER SERVICE BINGHAMTON NY
600 PM EDT SUN AUG 28 2016

Note: "fair" indicates few or no clouds below 12,000 feet with no
significant weather and/or obstructions to visibility.

* = Station(s) that does not report precipitation, such as rain,
snow, etc, also no thunder or fog.

NYZ009-015>018-022>025-036-037-044>046-055>057-062-282300
...Central New York...

CITY           SKY/WX    TMP DP  RH WIND       PRES   REMARKS
Binghamton     CLOUDY    79  67  66 SW8       30.19R
Cortland       LGT RAIN  73  72  94 W3        30.16S
Dansville      MOSUNNY   88  68  51 NW7       30.13S HX  91
Elmira         CLOUDY    81  70  69 SE5       30.13S
Ithaca         CLOUDY    77  73  87 S3        30.15F
Hamilton       MOSUNNY   82  70  65 S5        30.14S HX  86
Hornell        SUNNY     86  68  54 NW10      30.18S HX  89
Monticello     SUNNY     81  63  54 SW5       30.21F
Norwich        MOSUNNY   79  66  65 S5        30.15S
Oneonta        SUNNY     79  63  57 SW6       30.19F
Penn Yan       CLOUDY    88  68  51 W5        30.13F HX  91
Rome           CLOUDY    78  74  87 SW7       30.11R
Sidney         SUNNY     81  70  69 S5        30.16S
Syracuse       CLOUDY    84  73  69 NW8       30.08S HX  90
$$

PAZ038>040-043-044-047-048-072-282300
...Northeast Pennsylvania...

CITY           SKY/WX    TMP DP  RH WIND       PRES   REMARKS
Hazleton       SUNNY     81  63  54 CALM      30.25F
Scranton       SUNNY     84  65  52 S8        30.18S HX  86
$$
&&
KEY
WCI = Wind Chill Index
VSB = Visibility
HX  = Heat Index
$$




USA.gov is the U.S. government's official web portal to all federal, state and local government web resources and services.